Time,TemperatureF,DewpointF,PressureIn,WindDirection,WindDirectionDegrees,WindSpeedMPH,WindSpeedGustMPH,Humidity,HourlyPrecipIn,Conditions,Clouds,dailyrainin,SoftwareType,DateUTC
2013-07-22 00:00:00,75.0,67.3,29.82,ESE,110,0.0,0.0,77,0.00,,---,0.00,VWS V14.01,2013-07-22 07:00:00,
2013-07-22 00:01:00,75.1,67.4,29.82,ESE,110,0.0,0.0,77,0.00,,---,0.00,VWS V14.01,2013-07-22 07:01:00,
2013-07-22 00:06:00,75.0,67.3,29.81,ESE,110,0.0,0.0,77,0.00,,---,0.00,VWS V14.01,2013-07-22 07:06:00,
2013-07-22 00:11:00,74.9,67.2,29.81,ESE,110,0.0,0.0,77,0.00,,---,0.00,VWS V14.01,2013-07-22 07:11:00,
2013-07-22 00:16:00,74.8,67.1,29.81,ESE,110,0.0,0.0,77,0.00,,---,0.00,VWS V14.01,2013-07-22 07:16:00,
2013-07-22 00:21:00,74.5,67.2,29.81,ESE,110,0.0,0.0,78,0.00,,---,0.00,VWS V14.01,2013-07-22 07:21:00,
2013-07-22 00:26:00,74.2,66.9,29.81,ESE,111,0.0,0.0,78,0.00,,---,0.00,VWS V14.01,2013-07-22 07:26:00,
2013-07-22 00:30:00,73.9,67.3,29.81,ESE,111,0.0,0.0,80,0.00,,---,0.00,VWS V14.01,2013-07-22 07:30:00,
2013-07-22 00:31:00,74.0,67.4,29.81,ESE,111,0.0,0.0,80,0.00,,---,0.00,VWS V14.01,2013-07-22 07:31:00,
2013-07-22 00:36:00,73.7,67.2,29.81,ESE,111,0.0,0.0,80,0.00,,---,0.00,VWS V14.01,2013-07-22 07:36:00,
2013-07-22 00:41:00,73.6,67.1,29.81,ESE,111,0.0,0.0,80,0.00,,---,0.00,VWS V14.01,2013-07-22 07:41:00,
2013-07-22 00:47:00,73.5,66.6,29.81,ESE,111,0.0,0.0,79,0.00,,---,0.00,VWS V14.01,2013-07-22 07:47:00,
2013-07-22 00:52:00,73.5,66.6,29.81,ESE,111,0.0,0.0,79,0.00,,---,0.00,VWS V14.01,2013-07-22 07:52:00,
2013-07-22 00:57:00,73.5,66.6,29.81,ESE,112,0.0,0.0,79,0.00,,---,0.00,VWS V14.01,2013-07-22 07:57:00,
2013-07-22 01:00:00,73.4,66.5,29.81,ENE,59,0.0,0.0,79,0.00,,---,0.00,VWS V14.01,2013-07-22 08:00:00,
2013-07-22 01:02:00,73.4,66.5,29.81,East,86,0.0,0.0,79,0.00,,---,0.00,VWS V14.01,2013-07-22 08:02:00,
2013-07-22 01:07:00,73.6,67.1,29.81,NNE,32,1.0,2.0,80,0.00,,---,0.00,VWS V14.01,2013-07-22 08:07:00,
2013-07-22 01:12:00,73.7,67.2,29.81,NE,34,2.0,2.0,80,0.00,,---,0.00,VWS V14.01,2013-07-22 08:12:00,
2013-07-22 01:17:00,73.8,67.2,29.81,NE,37,2.0,3.0,80,0.00,,---,0.00,VWS V14.01,2013-07-22 08:17:00,
2013-07-22 01:22:00,73.9,67.0,29.80,North,8,1.0,3.0,79,0.00,,---,0.00,VWS V14.01,2013-07-22 08:22:00,
2013-07-22 01:28:00,73.9,67.0,29.80,North,9,1.0,3.0,79,0.00,,---,0.00,VWS V14.01,2013-07-22 08:28:00,
2013-07-22 01:30:00,73.9,67.0,29.80,NNE,27,2.0,3.0,79,0.00,,---,0.00,VWS V14.01,2013-07-22 08:30:00,
2013-07-22 01:33:00,73.9,67.0,29.80,NE,36,1.0,3.0,79,0.00,,---,0.00,VWS V14.01,2013-07-22 08:33:00,
2013-07-22 01:38:00,73.9,67.0,29.80,NE,50,0.0,2.0,79,0.00,,---,0.00,VWS V14.01,2013-07-22 08:38:00,
2013-07-22 01:43:00,73.9,67.0,29.80,NE,39,0.0,3.0,79,0.00,,---,0.00,VWS V14.01,2013-07-22 08:43:00,
2013-07-22 01:48:00,74.0,67.1,29.80,NE,42,2.0,3.0,79,0.00,,---,0.00,VWS V14.01,2013-07-22 08:48:00,
2013-07-22 01:53:00,73.9,66.6,29.80,NNE,19,0.0,4.0,78,0.00,,---,0.00,VWS V14.01,2013-07-22 08:53:00,
2013-07-22 01:58:00,73.8,66.5,29.80,NE,39,1.0,4.0,78,0.00,,---,0.00,VWS V14.01,2013-07-22 08:58:00,
2013-07-22 02:00:00,73.9,66.6,29.80,NE,46,2.0,4.0,78,0.00,,---,0.00,VWS V14.01,2013-07-22 09:00:00,
2013-07-22 02:03:00,73.9,66.6,29.79,NNE,33,2.0,2.0,78,0.00,,---,0.00,VWS V14.01,2013-07-22 09:03:00,
2013-07-22 02:08:00,73.9,66.6,29.79,NNE,13,1.0,3.0,78,0.00,,---,0.00,VWS V14.01,2013-07-22 09:08:00,
2013-07-22 02:14:00,73.7,66.4,29.79,NNE,24,1.0,4.0,78,0.00,,---,0.00,VWS V14.01,2013-07-22 09:14:00,
2013-07-22 02:19:00,73.5,66.2,29.79,NNE,23,0.0,4.0,78,0.00,,---,0.00,VWS V14.01,2013-07-22 09:19:00,
2013-07-22 02:24:00,73.3,66.4,29.79,North,6,0.0,4.0,79,0.00,,---,0.00,VWS V14.01,2013-07-22 09:24:00,
2013-07-22 02:29:00,73.1,66.2,29.79,NNE,18,1.0,4.0,79,0.00,,---,0.00,VWS V14.01,2013-07-22 09:29:00,
2013-07-22 02:30:00,73.0,66.1,29.79,NNE,22,2.0,4.0,79,0.00,,---,0.00,VWS V14.01,2013-07-22 09:30:00,
2013-07-22 02:34:00,73.1,66.2,29.79,NNE,20,1.0,2.0,79,0.00,,---,0.00,VWS V14.01,2013-07-22 09:34:00,
2013-07-22 02:39:00,73.2,66.3,29.79,NNE,16,2.0,4.0,79,0.00,,---,0.00,VWS V14.01,2013-07-22 09:39:00,
2013-07-22 02:44:00,73.2,66.3,29.79,NNE,12,2.0,4.0,79,0.00,,---,0.00,VWS V14.01,2013-07-22 09:44:00,
2013-07-22 02:49:00,73.3,66.4,29.79,NNE,12,1.0,4.0,79,0.00,,---,0.00,VWS V14.01,2013-07-22 09:49:00,
2013-07-22 02:54:00,73.3,66.0,29.79,NNE,15,0.0,4.0,78,0.00,,---,0.00,VWS V14.01,2013-07-22 09:54:00,
2013-07-22 03:00:00,73.3,66.0,29.79,NNW,345,0.0,4.0,78,0.00,,---,0.00,VWS V14.01,2013-07-22 10:00:00,
2013-07-22 03:05:00,73.2,66.3,29.79,North,5,0.0,0.0,79,0.00,,---,0.00,VWS V14.01,2013-07-22 10:05:00,
2013-07-22 03:10:00,73.2,66.3,29.79,North,4,0.0,1.0,79,0.00,,---,0.00,VWS V14.01,2013-07-22 10:10:00,
2013-07-22 03:15:00,73.2,66.3,29.79,North,11,0.0,1.0,79,0.00,,---,0.00,VWS V14.01,2013-07-22 10:15:00,
2013-07-22 03:20:00,73.1,66.2,29.79,NNE,13,0.0,1.0,79,0.00,,---,0.00,VWS V14.01,2013-07-22 10:20:00,
2013-07-22 03:25:00,73.0,66.1,29.79,North,3,0.0,1.0,79,0.00,,---,0.00,VWS V14.01,2013-07-22 10:25:00,
2013-07-22 03:30:00,72.9,66.0,29.79,North,3,0.0,1.0,79,0.00,,---,0.00,VWS V14.01,2013-07-22 10:30:00,
2013-07-22 03:35:00,72.7,65.8,29.79,North,3,0.0,0.0,79,0.00,,---,0.00,VWS V14.01,2013-07-22 10:35:00,
2013-07-22 03:40:00,72.6,66.1,29.79,North,4,0.0,0.0,80,0.00,,---,0.00,VWS V14.01,2013-07-22 10:40:00,
2013-07-22 03:45:00,72.4,66.2,29.79,North,3,0.0,0.0,81,0.00,,---,0.00,VWS V14.01,2013-07-22 10:45:00,
2013-07-22 03:50:00,72.2,66.4,29.79,NE,46,0.0,0.0,82,0.00,,---,0.00,VWS V14.01,2013-07-22 10:50:00,
2013-07-22 03:56:00,72.0,66.2,29.80,NE,49,0.0,0.0,82,0.00,,---,0.00,VWS V14.01,2013-07-22 10:56:00,
2013-07-22 04:00:00,71.7,66.3,29.80,NE,47,0.0,0.0,83,0.00,,---,0.00,VWS V14.01,2013-07-22 11:00:00,
2013-07-22 04:01:00,71.8,66.4,29.80,NE,48,0.0,0.0,83,0.00,,---,0.00,VWS V14.01,2013-07-22 11:01:00,
2013-07-22 04:06:00,71.6,66.5,29.80,NE,46,0.0,0.0,84,0.00,,---,0.00,VWS V14.01,2013-07-22 11:06:00,
2013-07-22 04:11:00,71.6,66.2,29.80,NNE,16,0.0,0.0,83,0.00,,---,0.00,VWS V14.01,2013-07-22 11:11:00,
2013-07-22 04:16:00,71.6,66.2,29.80,NNE,16,0.0,0.0,83,0.00,,---,0.00,VWS V14.01,2013-07-22 11:16:00,
2013-07-22 04:21:00,71.5,66.1,29.80,NNE,14,0.0,0.0,83,0.00,,---,0.00,VWS V14.01,2013-07-22 11:21:00,
2013-07-22 04:26:00,71.2,65.8,29.80,NNE,13,0.0,0.0,83,0.00,,---,0.00,VWS V14.01,2013-07-22 11:26:00,
2013-07-22 04:30:00,70.9,65.8,29.80,North,8,0.0,0.0,84,0.00,,---,0.00,VWS V14.01,2013-07-22 11:30:00,
2013-07-22 04:31:00,71.0,65.9,29.80,NNE,13,0.0,0.0,84,0.00,,---,0.00,VWS V14.01,2013-07-22 11:31:00,
2013-07-22 04:36:00,70.8,66.1,29.80,NW,318,0.0,0.0,85,0.00,,---,0.00,VWS V14.01,2013-07-22 11:36:00,
2013-07-22 04:42:00,70.8,66.1,29.80,NW,318,0.0,0.0,85,0.00,,---,0.00,VWS V14.01,2013-07-22 11:42:00,
2013-07-22 04:47:00,70.8,66.1,29.80,NW,318,0.0,0.0,85,0.00,,---,0.00,VWS V14.01,2013-07-22 11:47:00,
2013-07-22 04:52:00,70.9,66.2,29.81,NW,318,0.0,0.0,85,0.00,,---,0.00,VWS V14.01,2013-07-22 11:52:00,
2013-07-22 04:57:00,70.9,66.2,29.81,NW,317,0.0,0.0,85,0.00,,---,0.00,VWS V14.01,2013-07-22 11:57:00,
2013-07-22 05:00:00,70.7,66.0,29.81,NW,317,0.0,0.0,85,0.00,,---,0.00,VWS V14.01,2013-07-22 12:00:00,
2013-07-22 05:02:00,70.8,66.1,29.81,NW,317,0.0,0.0,85,0.00,,---,0.00,VWS V14.01,2013-07-22 12:02:00,
2013-07-22 05:07:00,70.5,66.1,29.81,NW,317,0.0,0.0,86,0.00,,---,0.00,VWS V14.01,2013-07-22 12:07:00,
2013-07-22 05:12:00,70.4,66.0,29.82,NW,326,0.0,0.0,86,0.00,,---,0.00,VWS V14.01,2013-07-22 12:12:00,
2013-07-22 05:17:00,70.3,66.2,29.82,ENE,64,0.0,0.0,87,0.00,,---,0.00,VWS V14.01,2013-07-22 12:17:00,
2013-07-22 05:22:00,70.2,66.2,29.82,ENE,64,0.0,0.0,87,0.00,,---,0.00,VWS V14.01,2013-07-22 12:22:00,
2013-07-22 05:27:00,70.2,65.8,29.82,ENE,64,0.0,0.0,86,0.00,,---,0.00,VWS V14.01,2013-07-22 12:27:00,
2013-07-22 05:30:00,70.1,65.4,29.82,ENE,64,0.0,0.0,85,0.00,,---,0.00,VWS V14.01,2013-07-22 12:30:00,
2013-07-22 05:33:00,70.1,65.4,29.82,ENE,64,0.0,0.0,85,0.00,,---,0.00,VWS V14.01,2013-07-22 12:33:00,
2013-07-22 05:38:00,70.0,65.3,29.82,ENE,63,0.0,0.0,85,0.00,,---,0.00,VWS V14.01,2013-07-22 12:38:00,
2013-07-22 05:43:00,70.0,65.6,29.83,ENE,63,0.0,0.0,86,0.00,,---,0.00,VWS V14.01,2013-07-22 12:43:00,
2013-07-22 05:48:00,70.0,65.6,29.82,ENE,63,0.0,0.0,86,0.00,,---,0.00,VWS V14.01,2013-07-22 12:48:00,
2013-07-22 05:53:00,69.9,65.9,29.82,ENE,64,0.0,0.0,87,0.00,,---,0.00,VWS V14.01,2013-07-22 12:53:00,
2013-07-22 05:58:00,69.7,65.3,29.83,ENE,64,0.0,0.0,86,0.00,,---,0.00,VWS V14.01,2013-07-22 12:58:00,
2013-07-22 06:00:00,69.5,65.5,29.83,ENE,64,0.0,0.0,87,0.00,,---,0.00,VWS V14.01,2013-07-22 13:00:00,
2013-07-22 06:03:00,69.5,65.5,29.83,ENE,64,0.0,0.0,87,0.00,,---,0.00,VWS V14.01,2013-07-22 13:03:00,
2013-07-22 06:08:00,69.7,65.7,29.83,ENE,64,0.0,0.0,87,0.00,,---,0.00,VWS V14.01,2013-07-22 13:08:00,
2013-07-22 06:13:00,70.0,66.0,29.83,ENE,63,0.0,0.0,87,0.00,,---,0.00,VWS V14.01,2013-07-22 13:13:00,
2013-07-22 06:18:00,70.5,66.4,29.83,ENE,64,0.0,0.0,87,0.00,,---,0.00,VWS V14.01,2013-07-22 13:18:00,
2013-07-22 06:24:00,71.0,66.6,29.83,NW,304,0.0,0.0,86,0.00,,---,0.00,VWS V14.01,2013-07-22 13:24:00,
2013-07-22 06:29:00,71.6,66.9,29.83,NW,304,0.0,0.0,85,0.00,,---,0.00,VWS V14.01,2013-07-22 13:29:00,
2013-07-22 06:30:00,72.1,67.0,29.83,WNW,300,0.0,0.0,84,0.00,,---,0.00,VWS V14.01,2013-07-22 13:30:00,
2013-07-22 06:34:00,72.2,67.1,29.83,WNW,300,0.0,0.0,84,0.00,,---,0.00,VWS V14.01,2013-07-22 13:34:00,
2013-07-22 06:39:00,72.8,67.3,29.84,WNW,300,0.0,0.0,83,0.00,,---,0.00,VWS V14.01,2013-07-22 13:39:00,
2013-07-22 06:44:00,73.6,67.4,29.84,WNW,300,0.0,0.0,81,0.00,,---,0.00,VWS V14.01,2013-07-22 13:44:00,
2013-07-22 06:49:00,74.2,67.3,29.84,WSW,249,0.0,1.0,79,0.00,,---,0.00,VWS V14.01,2013-07-22 13:49:00,
2013-07-22 06:54:00,74.6,67.3,29.84,WSW,250,3.0,4.0,78,0.00,,---,0.00,VWS V14.01,2013-07-22 13:54:00,
2013-07-22 06:59:00,75.1,67.8,29.84,West,262,1.0,4.0,78,0.00,,---,0.00,VWS V14.01,2013-07-22 13:59:00,
2013-07-22 07:00:00,75.4,67.7,29.84,WSW,246,1.0,4.0,77,0.00,,---,0.00,VWS V14.01,2013-07-22 14:00:00,
2013-07-22 07:04:00,75.4,67.3,29.84,West,269,2.0,3.0,76,0.00,,---,0.00,VWS V14.01,2013-07-22 14:04:00,
2013-07-22 07:09:00,75.7,68.0,29.85,WSW,248,3.0,4.0,77,0.00,,---,0.00,VWS V14.01,2013-07-22 14:09:00,
2013-07-22 07:15:00,76.0,67.9,29.85,SW,222,1.0,4.0,76,0.00,,---,0.00,VWS V14.01,2013-07-22 14:15:00,
2013-07-22 07:20:00,76.5,68.4,29.84,WSW,243,0.0,4.0,76,0.00,,---,0.00,VWS V14.01,2013-07-22 14:20:00,
2013-07-22 07:25:00,76.7,68.2,29.84,WSW,237,0.0,4.0,75,0.00,,---,0.00,VWS V14.01,2013-07-22 14:25:00,
2013-07-22 07:30:00,77.1,68.6,29.84,SW,232,1.0,4.0,75,0.00,,---,0.00,VWS V14.01,2013-07-22 14:30:00,
2013-07-22 07:35:00,77.6,68.7,29.85,WSW,255,2.0,3.0,74,0.00,,---,0.00,VWS V14.01,2013-07-22 14:35:00,
2013-07-22 07:40:00,77.9,68.6,29.85,SE,134,1.0,3.0,73,0.00,,---,0.00,VWS V14.01,2013-07-22 14:40:00,
2013-07-22 07:45:00,78.6,69.2,29.85,SW,228,2.0,4.0,73,0.00,,---,0.00,VWS V14.01,2013-07-22 14:45:00,
2013-07-22 07:50:00,78.8,69.0,29.85,SW,221,2.0,4.0,72,0.00,,---,0.00,VWS V14.01,2013-07-22 14:50:00,
2013-07-22 07:55:00,79.0,69.2,29.85,SSE,167,4.0,4.0,72,0.00,,---,0.00,VWS V14.01,2013-07-22 14:55:00,
2013-07-22 08:00:00,79.5,68.9,29.85,ESE,120,1.0,4.0,70,0.00,,---,0.00,VWS V14.01,2013-07-22 15:00:00,
2013-07-22 08:06:00,79.5,68.9,29.85,WSW,242,0.0,3.0,70,0.00,,---,0.00,VWS V14.01,2013-07-22 15:06:00,
2013-07-22 08:11:00,79.8,68.7,29.85,SSW,211,2.0,4.0,69,0.00,,---,0.00,VWS V14.01,2013-07-22 15:11:00,
2013-07-22 08:16:00,80.1,69.0,29.85,SW,232,0.0,4.0,69,0.00,,---,0.00,VWS V14.01,2013-07-22 15:16:00,
2013-07-22 08:21:00,81.0,68.6,29.85,SSE,159,0.0,4.0,66,0.00,,---,0.00,VWS V14.01,2013-07-22 15:21:00,
2013-07-22 08:26:00,81.3,68.9,29.85,SW,225,4.0,4.0,66,0.00,,---,0.00,VWS V14.01,2013-07-22 15:26:00,
2013-07-22 08:30:00,81.3,68.4,29.85,SE,145,2.0,4.0,65,0.00,,---,0.00,VWS V14.01,2013-07-22 15:30:00,
2013-07-22 08:31:00,81.2,68.3,29.85,SSE,154,0.0,4.0,65,0.00,,---,0.00,VWS V14.01,2013-07-22 15:31:00,
2013-07-22 08:36:00,81.8,68.0,29.85,WSW,256,0.0,2.0,63,0.00,,---,0.00,VWS V14.01,2013-07-22 15:36:00,
2013-07-22 08:41:00,82.1,67.8,29.85,SW,226,6.0,7.0,62,0.00,,---,0.00,VWS V14.01,2013-07-22 15:41:00,
2013-07-22 08:46:00,81.9,67.6,29.85,SW,219,3.0,7.0,62,0.00,,---,0.00,VWS V14.01,2013-07-22 15:46:00,
2013-07-22 08:51:00,82.1,67.8,29.85,SW,221,2.0,7.0,62,0.00,,---,0.00,VWS V14.01,2013-07-22 15:51:00,
2013-07-22 08:56:00,82.1,67.8,29.85,WSW,242,5.0,7.0,62,0.00,,---,0.00,VWS V14.01,2013-07-22 15:56:00,
2013-07-22 09:00:00,82.6,67.8,29.85,SW,229,4.0,9.0,61,0.00,,---,0.00,VWS V14.01,2013-07-22 16:00:00,
2013-07-22 09:02:00,82.5,68.2,29.85,WSW,242,2.0,9.0,62,0.00,,---,0.00,VWS V14.01,2013-07-22 16:02:00,
2013-07-22 09:07:00,82.5,68.2,29.85,WSW,249,4.0,6.0,62,0.00,,---,0.00,VWS V14.01,2013-07-22 16:07:00,
2013-07-22 09:12:00,82.5,68.2,29.85,SW,218,2.0,6.0,62,0.00,,---,0.00,VWS V14.01,2013-07-22 16:12:00,
2013-07-22 09:17:00,82.7,67.4,29.85,SW,216,1.0,7.0,60,0.00,,---,0.00,VWS V14.01,2013-07-22 16:17:00,
2013-07-22 09:22:00,83.4,67.6,29.85,SE,146,1.0,7.0,59,0.00,,---,0.00,VWS V14.01,2013-07-22 16:22:00,
2013-07-22 09:27:00,83.6,67.8,29.85,WSW,250,1.0,9.0,59,0.00,,---,0.00,VWS V14.01,2013-07-22 16:27:00,
2013-07-22 09:30:00,83.4,67.1,29.85,SW,225,3.0,9.0,58,0.00,,---,0.00,VWS V14.01,2013-07-22 16:30:00,
2013-07-22 09:32:00,83.4,67.1,29.85,SW,231,5.0,9.0,58,0.00,,---,0.00,VWS V14.01,2013-07-22 16:32:00,
2013-07-22 09:37:00,83.6,67.8,29.85,West,269,0.0,4.0,59,0.00,,---,0.00,VWS V14.01,2013-07-22 16:37:00,
2013-07-22 09:43:00,84.7,67.3,29.85,SSW,201,1.0,4.0,56,0.00,,---,0.00,VWS V14.01,2013-07-22 16:43:00,
2013-07-22 09:48:00,84.8,66.8,29.86,SW,219,6.0,8.0,55,0.00,,---,0.00,VWS V14.01,2013-07-22 16:48:00,
2013-07-22 09:53:00,84.3,66.9,29.86,WSW,255,2.0,8.0,56,0.00,,---,0.00,VWS V14.01,2013-07-22 16:53:00,
2013-07-22 09:58:00,84.8,66.8,29.86,SSW,206,3.0,8.0,55,0.00,,---,0.00,VWS V14.01,2013-07-22 16:58:00,
2013-07-22 10:00:00,85.3,66.8,29.85,WSW,255,2.0,8.0,54,0.00,,---,0.00,VWS V14.01,2013-07-22 17:00:00,
2013-07-22 10:03:00,85.3,66.8,29.85,WSW,255,2.0,8.0,54,0.00,,---,0.00,VWS V14.01,2013-07-22 17:03:00,
2013-07-22 10:08:00,85.6,67.1,29.85,SW,229,4.0,6.0,54,0.00,,---,0.00,VWS V14.01,2013-07-22 17:08:00,
2013-07-22 10:13:00,86.2,66.5,29.85,SSW,203,2.0,7.0,52,0.00,,---,0.00,VWS V14.01,2013-07-22 17:13:00,
2013-07-22 10:18:00,86.2,66.0,29.85,SSW,212,0.0,7.0,51,0.00,,---,0.00,VWS V14.01,2013-07-22 17:18:00,
2013-07-22 10:23:00,86.1,66.4,29.85,SW,232,0.0,7.0,52,0.00,,---,0.00,VWS V14.01,2013-07-22 17:23:00,
2013-07-22 10:28:00,87.3,67.5,29.85,WSW,252,4.0,7.0,52,0.00,,---,0.00,VWS V14.01,2013-07-22 17:28:00,
2013-07-22 10:30:00,87.0,66.7,29.85,West,270,1.0,7.0,51,0.00,,---,0.00,VWS V14.01,2013-07-22 17:30:00,
2013-07-22 10:33:00,87.0,66.7,29.85,West,270,3.0,3.0,51,0.00,,---,0.00,VWS V14.01,2013-07-22 17:33:00,
2013-07-22 10:39:00,86.1,65.9,29.85,WNW,293,0.0,5.0,51,0.00,,---,0.00,VWS V14.01,2013-07-22 17:39:00,
2013-07-22 10:43:00,85.9,66.2,29.85,SSW,198,2.0,5.0,52,0.00,,---,0.00,VWS V14.01,2013-07-22 17:43:00,
2013-07-22 10:49:00,86.2,66.0,29.85,WNW,301,3.0,8.0,51,0.00,,---,0.00,VWS V14.01,2013-07-22 17:49:00,
2013-07-22 10:54:00,86.3,65.5,29.85,West,276,3.0,8.0,50,0.00,,---,0.00,VWS V14.01,2013-07-22 17:54:00,
2013-07-22 10:59:00,86.4,64.4,29.85,SW,231,1.0,8.0,48,0.00,,---,0.00,VWS V14.01,2013-07-22 17:59:00,
2013-07-22 11:00:00,86.3,63.7,29.85,West,276,0.0,8.0,47,0.00,,---,0.00,VWS V14.01,2013-07-22 18:00:00,
2013-07-22 11:04:00,86.4,63.8,29.85,SSW,193,1.0,1.0,47,0.00,,---,0.00,VWS V14.01,2013-07-22 18:04:00,
2013-07-22 11:09:00,87.3,64.6,29.85,West,276,0.0,3.0,47,0.00,,---,0.00,VWS V14.01,2013-07-22 18:09:00,
2013-07-22 11:14:00,89.0,64.9,29.85,SW,235,1.0,5.0,45,0.00,,---,0.00,VWS V14.01,2013-07-22 18:14:00,
2013-07-22 11:19:00,89.2,65.7,29.85,East,89,0.0,5.0,46,0.00,,---,0.00,VWS V14.01,2013-07-22 18:19:00,
2013-07-22 11:25:00,89.2,65.7,29.85,WSW,248,4.0,5.0,46,0.00,,---,0.00,VWS V14.01,2013-07-22 18:25:00,
2013-07-22 11:30:00,87.6,64.9,29.85,WSW,252,2.0,7.0,47,0.00,,---,0.00,VWS V14.01,2013-07-22 18:30:00,
2013-07-22 11:35:00,86.8,64.8,29.84,SSW,208,0.0,2.0,48,0.00,,---,0.00,VWS V14.01,2013-07-22 18:35:00,
2013-07-22 11:40:00,87.2,65.1,29.84,WSW,256,0.0,4.0,48,0.00,,---,0.00,VWS V14.01,2013-07-22 18:40:00,
2013-07-22 11:45:00,87.8,64.5,29.84,WNW,291,2.0,4.0,46,0.00,,---,0.00,VWS V14.01,2013-07-22 18:45:00,
2013-07-22 11:50:00,88.2,63.6,29.84,WSW,256,0.0,5.0,44,0.00,,---,0.00,VWS V14.01,2013-07-22 18:50:00,
2013-07-22 11:56:00,88.6,63.9,29.84,WSW,249,2.0,5.0,44,0.00,,---,0.00,VWS V14.01,2013-07-22 18:56:00,
2013-07-22 12:00:00,89.3,64.6,29.84,SW,233,2.0,5.0,44,0.00,,---,0.00,VWS V14.01,2013-07-22 19:00:00,
2013-07-22 12:01:00,88.9,64.8,29.84,North,352,3.0,5.0,45,0.00,,---,0.00,VWS V14.01,2013-07-22 19:01:00,
2013-07-22 12:06:00,90.0,64.5,29.83,NNE,22,3.0,4.0,43,0.00,,---,0.00,VWS V14.01,2013-07-22 19:06:00,
2013-07-22 12:11:00,90.9,64.0,29.83,NW,307,1.0,4.0,41,0.00,,---,0.00,VWS V14.01,2013-07-22 19:11:00,
2013-07-22 12:16:00,90.8,63.9,29.83,NNW,343,0.0,4.0,41,0.00,,---,0.00,VWS V14.01,2013-07-22 19:16:00,
2013-07-22 12:21:00,90.9,64.0,29.83,North,351,2.0,4.0,41,0.00,,---,0.00,VWS V14.01,2013-07-22 19:21:00,
2013-07-22 12:26:00,90.4,65.5,29.83,NNE,25,5.0,10.0,44,0.00,,---,0.00,VWS V14.01,2013-07-22 19:26:00,
2013-07-22 12:30:00,87.5,65.4,29.82,NNE,27,6.0,10.0,48,0.00,,---,0.00,VWS V14.01,2013-07-22 19:30:00,
2013-07-22 12:31:00,87.8,65.7,29.82,NE,50,3.0,10.0,48,0.00,,---,0.00,VWS V14.01,2013-07-22 19:31:00,
2013-07-22 12:36:00,86.9,66.0,29.82,NE,45,5.0,8.0,50,0.00,,---,0.00,VWS V14.01,2013-07-22 19:36:00,
2013-07-22 12:41:00,87.2,66.3,29.82,NE,44,3.0,9.0,50,0.00,,---,0.00,VWS V14.01,2013-07-22 19:41:00,
2013-07-22 12:46:00,88.1,66.6,29.82,NE,50,3.0,9.0,49,0.00,,---,0.00,VWS V14.01,2013-07-22 19:46:00,
2013-07-22 12:52:00,89.4,65.9,29.81,ENE,63,2.0,9.0,46,0.00,,---,0.00,VWS V14.01,2013-07-22 19:52:00,
2013-07-22 12:57:00,89.3,66.4,29.81,East,82,1.0,9.0,47,0.00,,---,0.00,VWS V14.01,2013-07-22 19:57:00,
2013-07-22 13:00:00,90.8,65.9,29.81,ENE,70,4.0,9.0,44,0.00,,---,0.00,VWS V14.01,2013-07-22 20:00:00,
2013-07-22 13:03:00,90.8,65.9,29.81,ENE,70,4.0,9.0,44,0.00,,---,0.00,VWS V14.01,2013-07-22 20:03:00,
2013-07-22 13:08:00,90.8,65.2,29.81,NE,41,2.0,8.0,43,0.00,,---,0.00,VWS V14.01,2013-07-22 20:08:00,
2013-07-22 13:13:00,91.0,66.1,29.81,SE,135,3.0,8.0,44,0.00,,---,0.00,VWS V14.01,2013-07-22 20:13:00,
2013-07-22 13:16:00,91.4,65.8,29.80,ENE,60,3.0,8.0,43,0.00,,---,0.00,VWS V14.01,2013-07-22 20:16:00,
2013-07-22 13:17:00,91.4,65.8,29.80,NNE,33,2.0,8.0,43,0.00,,---,0.00,VWS V14.01,2013-07-22 20:17:00,
2013-07-22 13:23:00,90.3,64.8,29.80,SE,126,0.0,8.0,43,0.00,,---,0.00,VWS V14.01,2013-07-22 20:23:00,
2013-07-22 13:28:00,89.8,65.0,29.80,North,360,2.0,8.0,44,0.00,,---,0.00,VWS V14.01,2013-07-22 20:28:00,
2013-07-22 13:30:00,88.4,64.4,29.80,SW,231,2.0,8.0,45,0.00,,---,0.00,VWS V14.01,2013-07-22 20:30:00,
2013-07-22 13:33:00,88.4,64.4,29.80,WSW,243,1.0,8.0,45,0.00,,---,0.00,VWS V14.01,2013-07-22 20:33:00,
2013-07-22 13:38:00,87.5,64.8,29.80,WSW,255,2.0,4.0,47,0.00,,---,0.00,VWS V14.01,2013-07-22 20:38:00,
2013-07-22 13:43:00,87.5,65.4,29.80,NNW,328,3.0,6.0,48,0.00,,---,0.00,VWS V14.01,2013-07-22 20:43:00,
2013-07-22 13:48:00,87.6,64.9,29.80,SW,232,1.0,6.0,47,0.00,,---,0.00,VWS V14.01,2013-07-22 20:48:00,
2013-07-22 13:53:00,87.5,66.0,29.80,WSW,249,3.0,8.0,49,0.00,,---,0.00,VWS V14.01,2013-07-22 20:53:00,
2013-07-22 13:58:00,87.1,65.1,29.79,SW,236,4.0,8.0,48,0.00,,---,0.00,VWS V14.01,2013-07-22 20:58:00,
2013-07-22 14:00:00,86.5,66.2,29.80,West,281,6.0,8.0,51,0.00,,---,0.00,VWS V14.01,2013-07-22 21:00:00,
2013-07-22 14:03:00,86.5,66.2,29.80,West,281,6.0,8.0,51,0.00,,---,0.00,VWS V14.01,2013-07-22 21:03:00,
2013-07-22 14:08:00,86.2,66.0,29.79,SW,219,3.0,8.0,51,0.00,,---,0.00,VWS V14.01,2013-07-22 21:08:00,
2013-07-22 14:13:00,85.9,65.7,29.80,SW,232,6.0,11.0,51,0.00,,---,0.00,VWS V14.01,2013-07-22 21:13:00,
2013-07-22 14:18:00,85.7,65.5,29.79,WSW,256,3.0,11.0,51,0.00,,---,0.00,VWS V14.01,2013-07-22 21:18:00,
2013-07-22 14:23:00,85.9,65.1,29.79,SW,225,5.0,11.0,50,0.00,,---,0.00,VWS V14.01,2013-07-22 21:23:00,
2013-07-22 14:28:00,86.0,65.2,29.79,West,280,10.0,12.0,50,0.00,,---,0.00,VWS V14.01,2013-07-22 21:28:00,
2013-07-22 14:30:00,86.0,64.6,29.80,West,271,5.0,12.0,49,0.00,,---,0.00,VWS V14.01,2013-07-22 21:30:00,
2013-07-22 14:34:00,86.0,64.6,29.80,West,263,3.0,7.0,49,0.00,,---,0.00,VWS V14.01,2013-07-22 21:34:00,
2013-07-22 14:39:00,86.7,67.0,29.79,NNW,338,3.0,7.0,52,0.00,,---,0.00,VWS V14.01,2013-07-22 21:39:00,
2013-07-22 14:44:00,86.2,65.4,29.79,NE,44,8.0,12.0,50,0.00,,---,0.00,VWS V14.01,2013-07-22 21:44:00,
2013-07-22 14:49:00,85.4,65.8,29.79,WNW,297,2.0,12.0,52,0.00,,---,0.00,VWS V14.01,2013-07-22 21:49:00,
2013-07-22 14:54:00,85.6,66.0,29.79,NE,40,3.0,12.0,52,0.00,,---,0.00,VWS V14.01,2013-07-22 21:54:00,
2013-07-22 14:59:00,86.1,65.9,29.79,West,260,2.0,12.0,51,0.00,,---,0.00,VWS V14.01,2013-07-22 21:59:00,
2013-07-22 15:00:00,86.7,65.9,29.79,West,267,4.0,12.0,50,0.00,,---,0.00,VWS V14.01,2013-07-22 22:00:00,
2013-07-22 15:04:00,86.9,66.0,29.79,NW,306,4.0,6.0,50,0.00,,---,0.00,VWS V14.01,2013-07-22 22:04:00,
2013-07-22 15:09:00,88.2,66.7,29.79,NW,309,2.0,7.0,49,0.00,,---,0.00,VWS V14.01,2013-07-22 22:09:00,
2013-07-22 15:14:00,88.6,66.4,29.79,ENE,71,5.0,7.0,48,0.00,,---,0.00,VWS V14.01,2013-07-22 22:14:00,
2013-07-22 15:20:00,88.5,66.9,29.79,WNW,291,2.0,7.0,49,0.00,,---,0.00,VWS V14.01,2013-07-22 22:20:00,
2013-07-22 15:25:00,89.7,65.6,29.79,West,260,3.0,7.0,45,0.00,,---,0.00,VWS V14.01,2013-07-22 22:25:00,
2013-07-22 15:30:00,90.5,66.3,29.79,NNW,330,4.0,7.0,45,0.00,,---,0.00,VWS V14.01,2013-07-22 22:30:00,
2013-07-22 15:35:00,90.4,63.5,29.79,NNW,343,2.0,8.0,41,0.00,,---,0.00,VWS V14.01,2013-07-22 22:35:00,
2013-07-22 15:40:00,90.3,65.4,29.78,NNE,27,3.0,8.0,44,0.00,,---,0.00,VWS V14.01,2013-07-22 22:40:00,
2013-07-22 15:45:00,90.3,64.8,29.78,NNW,332,3.0,8.0,43,0.00,,---,0.00,VWS V14.01,2013-07-22 22:45:00,
2013-07-22 15:50:00,90.6,64.4,29.78,NNE,16,0.0,9.0,42,0.00,,---,0.00,VWS V14.01,2013-07-22 22:50:00,
2013-07-22 15:55:00,90.2,63.3,29.78,WNW,283,1.0,9.0,41,0.00,,---,0.00,VWS V14.01,2013-07-22 22:55:00,
2013-07-22 16:00:00,89.3,63.2,29.79,West,275,2.0,9.0,42,0.00,,---,0.00,VWS V14.01,2013-07-22 23:00:00,
2013-07-22 16:05:00,89.1,62.4,29.78,NNW,338,2.0,3.0,41,0.00,,---,0.00,VWS V14.01,2013-07-22 23:05:00,
2013-07-22 16:10:00,89.3,61.8,29.78,NNE,25,3.0,5.0,40,0.00,,---,0.00,VWS V14.01,2013-07-22 23:10:00,
2013-07-22 16:16:00,88.8,66.0,29.77,NE,37,4.0,9.0,47,0.00,,---,0.00,VWS V14.01,2013-07-22 23:16:00,
2013-07-22 16:21:00,87.8,65.1,29.77,ESE,108,0.0,9.0,47,0.00,,---,0.00,VWS V14.01,2013-07-22 23:21:00,
2013-07-22 16:26:00,87.9,65.8,29.77,NE,50,4.0,9.0,48,0.00,,---,0.00,VWS V14.01,2013-07-22 23:26:00,
2013-07-22 16:30:00,88.0,65.9,29.77,ENE,77,1.0,9.0,48,0.00,,---,0.00,VWS V14.01,2013-07-22 23:30:00,
2013-07-22 16:31:00,87.8,65.7,29.77,East,84,0.0,9.0,48,0.00,,---,0.00,VWS V14.01,2013-07-22 23:31:00,
2013-07-22 16:36:00,88.5,65.7,29.77,North,357,2.0,5.0,47,0.00,,---,0.00,VWS V14.01,2013-07-22 23:36:00,
2013-07-22 16:41:00,89.1,65.6,29.76,ENE,60,5.0,8.0,46,0.00,,---,0.00,VWS V14.01,2013-07-22 23:41:00,
2013-07-22 16:46:00,88.6,65.2,29.76,NE,39,3.0,8.0,46,0.00,,---,0.00,VWS V14.01,2013-07-22 23:46:00,
2013-07-22 16:51:00,88.2,65.4,29.76,North,350,3.0,8.0,47,0.00,,---,0.00,VWS V14.01,2013-07-22 23:51:00,
2013-07-22 16:56:00,88.3,65.5,29.76,NNE,33,2.0,8.0,47,0.00,,---,0.00,VWS V14.01,2013-07-22 23:56:00,
2013-07-22 17:00:00,88.3,64.9,29.76,ENE,64,2.0,8.0,46,0.00,,---,0.00,VWS V14.01,2013-07-23 00:00:00,
2013-07-22 17:01:00,88.2,64.8,29.76,East,88,2.0,8.0,46,0.00,,---,0.00,VWS V14.01,2013-07-23 00:01:00,
2013-07-22 17:06:00,88.3,64.9,29.76,NE,40,4.0,7.0,46,0.00,,---,0.00,VWS V14.01,2013-07-23 00:06:00,
2013-07-22 17:11:00,88.8,65.4,29.76,NE,56,1.0,7.0,46,0.00,,---,0.00,VWS V14.01,2013-07-23 00:11:00,
2013-07-22 17:16:00,89.1,65.0,29.76,NE,44,0.0,7.0,45,0.00,,---,0.00,VWS V14.01,2013-07-23 00:16:00,
2013-07-22 17:22:00,88.6,64.6,29.76,NE,37,0.0,7.0,45,0.00,,---,0.00,VWS V14.01,2013-07-23 00:22:00,
2013-07-22 17:27:00,88.8,64.7,29.76,NE,41,5.0,7.0,45,0.00,,---,0.00,VWS V14.01,2013-07-23 00:27:00,
2013-07-22 17:30:00,88.2,64.2,29.76,NE,54,2.0,9.0,45,0.00,,---,0.00,VWS V14.01,2013-07-23 00:30:00,
2013-07-22 17:32:00,88.4,65.0,29.76,NE,46,5.0,9.0,46,0.00,,---,0.00,VWS V14.01,2013-07-23 00:32:00,
2013-07-22 17:37:00,87.9,64.6,29.76,NNE,26,2.0,6.0,46,0.00,,---,0.00,VWS V14.01,2013-07-23 00:37:00,
2013-07-22 17:42:00,88.0,64.7,29.76,North,360,3.0,6.0,46,0.00,,---,0.00,VWS V14.01,2013-07-23 00:42:00,
2013-07-22 17:47:00,88.4,64.4,29.76,NE,37,1.0,6.0,45,0.00,,---,0.00,VWS V14.01,2013-07-23 00:47:00,
2013-07-22 17:52:00,89.0,63.6,29.76,NNE,27,2.0,6.0,43,0.00,,---,0.00,VWS V14.01,2013-07-23 00:52:00,
2013-07-22 17:57:00,89.5,62.0,29.76,WNW,286,1.0,6.0,40,0.00,,---,0.00,VWS V14.01,2013-07-23 00:57:00,
2013-07-22 18:00:00,89.9,61.7,29.77,WSW,250,1.0,6.0,39,0.00,,---,0.00,VWS V14.01,2013-07-23 01:00:00,
2013-07-22 18:02:00,90.0,61.7,29.77,WSW,246,1.0,6.0,39,0.00,,---,0.00,VWS V14.01,2013-07-23 01:02:00,
2013-07-22 18:07:00,89.9,60.9,29.77,West,281,0.0,4.0,38,0.00,,---,0.00,VWS V14.01,2013-07-23 01:07:00,
2013-07-22 18:13:00,90.1,61.1,29.77,NW,323,0.0,4.0,38,0.00,,---,0.00,VWS V14.01,2013-07-23 01:13:00,
2013-07-22 18:18:00,89.7,61.5,29.77,West,263,1.0,6.0,39,0.00,,---,0.00,VWS V14.01,2013-07-23 01:18:00,
2013-07-22 18:23:00,89.6,61.4,29.77,WNW,292,2.0,6.0,39,0.00,,---,0.00,VWS V14.01,2013-07-23 01:23:00,
2013-07-22 18:28:00,89.6,61.4,29.77,WSW,249,4.0,6.0,39,0.00,,---,0.00,VWS V14.01,2013-07-23 01:28:00,
2013-07-22 18:30:00,89.5,61.3,29.77,NNW,343,1.0,6.0,39,0.00,,---,0.00,VWS V14.01,2013-07-23 01:30:00,
2013-07-22 18:33:00,89.5,61.3,29.77,NNW,343,1.0,6.0,39,0.00,,---,0.00,VWS V14.01,2013-07-23 01:33:00,
2013-07-22 18:38:00,89.1,60.9,29.77,West,274,0.0,4.0,39,0.00,,---,0.00,VWS V14.01,2013-07-23 01:38:00,
2013-07-22 18:43:00,89.1,61.7,29.77,West,281,0.0,4.0,40,0.00,,---,0.00,VWS V14.01,2013-07-23 01:43:00,
2013-07-22 18:48:00,88.8,61.4,29.77,North,3,0.0,4.0,40,0.00,,---,0.00,VWS V14.01,2013-07-23 01:48:00,
2013-07-22 18:53:00,88.8,61.4,29.77,WSW,255,1.0,4.0,40,0.00,,---,0.00,VWS V14.01,2013-07-23 01:53:00,
2013-07-22 18:58:00,88.3,60.9,29.77,North,356,0.0,5.0,40,0.00,,---,0.00,VWS V14.01,2013-07-23 01:58:00,
2013-07-22 19:00:00,87.9,61.3,29.77,North,1,4.0,5.0,41,0.00,,---,0.00,VWS V14.01,2013-07-23 02:00:00,
2013-07-22 19:03:00,87.9,61.3,29.77,NNE,28,5.0,6.0,41,0.00,,---,0.00,VWS V14.01,2013-07-23 02:03:00,
2013-07-22 19:08:00,87.4,61.5,29.77,NNE,30,1.0,6.0,42,0.00,,---,0.00,VWS V14.01,2013-07-23 02:08:00,
2013-07-22 19:13:00,86.9,61.1,29.77,NE,50,1.0,7.0,42,0.00,,---,0.00,VWS V14.01,2013-07-23 02:13:00,
2013-07-22 19:18:00,86.3,61.2,29.77,NNE,29,3.0,7.0,43,0.00,,---,0.00,VWS V14.01,2013-07-23 02:18:00,
2013-07-22 19:24:00,85.7,61.3,29.77,NNE,13,1.0,7.0,44,0.00,,---,0.00,VWS V14.01,2013-07-23 02:24:00,
2013-07-22 19:29:00,85.4,61.0,29.77,NE,34,3.0,7.0,44,0.00,,---,0.00,VWS V14.01,2013-07-23 02:29:00,
2013-07-22 19:30:00,85.2,60.8,29.77,NNE,26,0.0,7.0,44,0.00,,---,0.00,VWS V14.01,2013-07-23 02:30:00,
2013-07-22 19:34:00,85.2,60.8,29.77,NNE,32,2.0,5.0,44,0.00,,---,0.00,VWS V14.01,2013-07-23 02:34:00,
2013-07-22 19:39:00,84.8,60.5,29.78,NNW,339,1.0,5.0,44,0.00,,---,0.00,VWS V14.01,2013-07-23 02:39:00,
2013-07-22 19:44:00,84.6,60.3,29.78,NNE,29,2.0,5.0,44,0.00,,---,0.00,VWS V14.01,2013-07-23 02:44:00,
2013-07-22 19:49:00,84.3,60.7,29.78,North,7,3.0,5.0,45,0.00,,---,0.00,VWS V14.01,2013-07-23 02:49:00,
2013-07-22 19:54:00,84.2,60.6,29.78,NW,324,1.0,5.0,45,0.00,,---,0.00,VWS V14.01,2013-07-23 02:54:00,
2013-07-22 19:59:00,84.0,60.4,29.78,NNE,18,0.0,5.0,45,0.00,,---,0.00,VWS V14.01,2013-07-23 02:59:00,
2013-07-22 20:00:00,83.9,60.9,29.78,North,357,0.0,5.0,46,0.00,,---,0.00,VWS V14.01,2013-07-23 03:00:00,
2013-07-22 20:04:00,83.8,60.8,29.78,North,1,1.0,2.0,46,0.00,,---,0.00,VWS V14.01,2013-07-23 03:04:00,
2013-07-22 20:09:00,83.7,60.7,29.78,NNE,18,3.0,4.0,46,0.00,,---,0.00,VWS V14.01,2013-07-23 03:09:00,
2013-07-22 20:14:00,83.5,60.6,29.78,NNW,347,2.0,4.0,46,0.00,,---,0.00,VWS V14.01,2013-07-23 03:14:00,
2013-07-22 20:19:00,83.4,61.1,29.78,North,11,0.0,4.0,47,0.00,,---,0.00,VWS V14.01,2013-07-23 03:19:00,
2013-07-22 20:25:00,83.2,60.9,29.78,NNE,32,0.0,4.0,47,0.00,,---,0.00,VWS V14.01,2013-07-23 03:25:00,
2013-07-22 20:30:00,83.1,60.8,29.78,NNE,13,0.0,4.0,47,0.00,,---,0.00,VWS V14.01,2013-07-23 03:30:00,
2013-07-22 20:35:00,82.9,61.2,29.78,NNE,18,0.0,3.0,48,0.00,,---,0.00,VWS V14.01,2013-07-23 03:35:00,
2013-07-22 20:40:00,82.7,61.0,29.79,NNW,340,1.0,3.0,48,0.00,,---,0.00,VWS V14.01,2013-07-23 03:40:00,
2013-07-22 20:45:00,82.6,60.9,29.79,NW,321,0.0,3.0,48,0.00,,---,0.00,VWS V14.01,2013-07-23 03:45:00,
2013-07-22 20:50:00,82.4,61.3,29.79,North,5,1.0,3.0,49,0.00,,---,0.00,VWS V14.01,2013-07-23 03:50:00,
2013-07-22 20:55:00,82.3,61.2,29.79,North,355,1.0,3.0,49,0.00,,---,0.00,VWS V14.01,2013-07-23 03:55:00,
2013-07-22 21:00:00,82.1,61.6,29.80,NE,47,0.0,3.0,50,0.00,,---,0.00,VWS V14.01,2013-07-23 04:00:00,
2013-07-22 21:01:00,82.1,61.6,29.80,NE,47,0.0,3.0,50,0.00,,---,0.00,VWS V14.01,2013-07-23 04:01:00,
2013-07-22 21:03:00,81.8,61.9,29.80,NE,46,0.0,3.0,51,0.00,,---,0.00,VWS V14.01,2013-07-23 04:03:00,
2013-07-22 21:08:00,81.2,62.5,29.80,NNE,23,2.0,3.0,53,0.00,,---,0.00,VWS V14.01,2013-07-23 04:08:00,
2013-07-22 21:14:00,80.9,62.2,29.80,NNE,22,1.0,3.0,53,0.00,,---,0.00,VWS V14.01,2013-07-23 04:14:00,
2013-07-22 21:19:00,80.7,62.5,29.79,NNE,22,0.0,3.0,54,0.00,,---,0.00,VWS V14.01,2013-07-23 04:19:00,
2013-07-22 21:24:00,80.5,62.3,29.80,North,360,0.0,3.0,54,0.00,,---,0.00,VWS V14.01,2013-07-23 04:24:00,
2013-07-22 21:29:00,80.5,62.9,29.80,North,8,0.0,3.0,55,0.00,,---,0.00,VWS V14.01,2013-07-23 04:29:00,
2013-07-22 21:30:00,80.5,62.9,29.80,North,9,1.0,3.0,55,0.00,,---,0.00,VWS V14.01,2013-07-23 04:30:00,
2013-07-22 21:34:00,80.5,63.4,29.80,North,9,2.0,3.0,56,0.00,,---,0.00,VWS V14.01,2013-07-23 04:34:00,
2013-07-22 21:39:00,80.3,63.2,29.80,NNE,13,0.0,3.0,56,0.00,,---,0.00,VWS V14.01,2013-07-23 04:39:00,
2013-07-22 21:44:00,80.3,63.2,29.81,NNE,15,0.0,3.0,56,0.00,,---,0.00,VWS V14.01,2013-07-23 04:44:00,
2013-07-22 21:49:00,80.2,63.6,29.81,NNE,15,0.0,3.0,57,0.00,,---,0.00,VWS V14.01,2013-07-23 04:49:00,
2013-07-22 21:54:00,80.1,63.5,29.81,NNE,14,0.0,3.0,57,0.00,,---,0.00,VWS V14.01,2013-07-23 04:54:00,
2013-07-22 21:59:00,79.9,63.8,29.81,NNE,15,0.0,3.0,58,0.00,,---,0.00,VWS V14.01,2013-07-23 04:59:00,
2013-07-22 22:00:00,79.7,64.1,29.81,NNE,14,0.0,3.0,59,0.00,,---,0.00,VWS V14.01,2013-07-23 05:00:00,
2013-07-22 22:04:00,79.7,64.1,29.81,NNE,15,0.0,0.0,59,0.00,,---,0.00,VWS V14.01,2013-07-23 05:04:00,
2013-07-22 22:09:00,79.6,64.0,29.81,NNE,15,0.0,0.0,59,0.00,,---,0.00,VWS V14.01,2013-07-23 05:09:00,
2013-07-22 22:14:00,79.4,63.8,29.81,North,4,0.0,0.0,59,0.00,,---,0.00,VWS V14.01,2013-07-23 05:14:00,
2013-07-22 22:19:00,79.3,63.7,29.81,NNE,15,0.0,0.0,59,0.00,,---,0.00,VWS V14.01,2013-07-23 05:19:00,
2013-07-22 22:25:00,79.4,63.8,29.81,NNE,15,0.0,0.0,59,0.00,,---,0.00,VWS V14.01,2013-07-23 05:25:00,
2013-07-22 22:30:00,79.6,64.0,29.81,NNE,16,0.0,0.0,59,0.00,,---,0.00,VWS V14.01,2013-07-23 05:30:00,
2013-07-22 22:35:00,79.3,64.2,29.81,NNE,18,0.0,0.0,60,0.00,,---,0.00,VWS V14.01,2013-07-23 05:35:00,
2013-07-22 22:40:00,78.8,64.2,29.81,NE,43,0.0,2.0,61,0.00,,---,0.00,VWS V14.01,2013-07-23 05:40:00,
2013-07-22 22:45:00,78.4,64.8,29.82,NE,47,0.0,2.0,63,0.00,,---,0.00,VWS V14.01,2013-07-23 05:45:00,
2013-07-22 22:50:00,78.0,64.8,29.82,NE,54,1.0,2.0,64,0.00,,---,0.00,VWS V14.01,2013-07-23 05:50:00,
2013-07-22 22:55:00,77.6,64.9,29.82,NE,40,1.0,3.0,65,0.00,,---,0.00,VWS V14.01,2013-07-23 05:55:00,
2013-07-22 23:00:00,77.5,65.3,29.82,NE,41,2.0,3.0,66,0.00,,---,0.00,VWS V14.01,2013-07-23 06:00:00,
2013-07-22 23:05:00,77.2,65.0,29.82,NE,46,0.0,2.0,66,0.00,,---,0.00,VWS V14.01,2013-07-23 06:05:00,
2013-07-22 23:11:00,76.9,65.1,29.82,NNE,30,0.0,2.0,67,0.00,,---,0.00,VWS V14.01,2013-07-23 06:11:00,
2013-07-22 23:16:00,76.7,64.9,29.82,NNW,344,0.0,2.0,67,0.00,,---,0.00,VWS V14.01,2013-07-23 06:16:00,
2013-07-22 23:21:00,76.6,64.8,29.83,NNW,344,0.0,2.0,67,0.00,,---,0.00,VWS V14.01,2013-07-23 06:21:00,
2013-07-22 23:26:00,76.4,64.6,29.82,NNW,345,0.0,2.0,67,0.00,,---,0.00,VWS V14.01,2013-07-23 06:26:00,
2013-07-22 23:30:00,76.6,64.4,29.82,NNE,12,1.0,2.0,66,0.00,,---,0.00,VWS V14.01,2013-07-23 06:30:00,
2013-07-22 23:31:00,76.6,64.8,29.82,NNE,13,0.0,2.0,67,0.00,,---,0.00,VWS V14.01,2013-07-23 06:31:00,
2013-07-22 23:36:00,76.8,63.7,29.82,North,9,2.0,3.0,64,0.00,,---,0.00,VWS V14.01,2013-07-23 06:36:00,
2013-07-22 23:41:00,76.9,63.8,29.82,North,11,2.0,4.0,64,0.00,,---,0.00,VWS V14.01,2013-07-23 06:41:00,
2013-07-22 23:46:00,77.0,63.5,29.83,NNE,19,1.0,4.0,63,0.00,,---,0.00,VWS V14.01,2013-07-23 06:46:00,
2013-07-22 23:51:00,77.1,63.5,29.83,NNE,18,1.0,4.0,63,0.00,,---,0.00,VWS V14.01,2013-07-23 06:51:00,
2013-07-22 23:57:00,77.1,63.5,29.82,North,11,0.0,4.0,63,0.00,,---,0.00,VWS V14.01,2013-07-23 06:57:00,